Location: Unspecified
(0.0000°N, 0.0000°E)
Time: 21:19:45
(UTC+00:00)

ROBUSTA-3A - Visible Passes

Search period start: 07 September 2024 00:00
Search period end: 17 September 2024 00:00
Orbit: 565 x 587 km, 62.0° (Epoch: 07 September)

Date Brightness Start Highest point End Pass type
(mag) Time Alt. Az. Time Alt. Az. Time Alt. Az.
14 Sep ? 19:41:02 10° SSW 19:42:55 26° SSW 19:42:55 26° SSW visible
15 Sep ? 19:44:22 10° SW 19:48:04 42° WNW 19:48:04 42° WNW visible
16 Sep ? 19:48:07 10° WSW 19:51:27 23° WNW 19:53:29 16° NNW visible
